Tracking 17149 objects as of 22-May-2015
HD Live streaming from Space Station

COSMOS 2398 DEB


COSMOS 2398 DEB is no longer on orbit
COSMOS 2398 DEB is classified as:


NORAD ID: 28516
Int'l Code: 2003-023C
Perigee: N/A
Apogee: N/A
Inclination: N/A
Period: N/A
Semi major axis: N/A
RCS: N/A
Launch date: June 4, 2003
Source: Commonwealth of Independent States (former USSR) (CIS)
Decay date: 2005-01-23

Note: This is SATELLITE DEBRIS
Your satellite tracking list
Your tracking list is empty





NASA's NSSDC Master Catalog

Two Line Element Set (TLE):
1 28516U 03023C   05022.89078260  .63903526  00000-0  12884+1 0  9996
2 28516 082.4310 130.9262 0218372 293.3958 070.7861 15.17050465  1876

Source of the keplerian elements: AFSPC

N2YO: 383